Probability
2 5 6 6 6 3 1 0 0 0 0 0 0 0 0 0 0 0 0 0 0 0 0 0 0 0 0 0 0 0 0 0 0 0 0 0 0 0 0 0 0 0 0
2 4 6 6 5 3 1 0 0 0 0 0 0 0 0 0 0 0 0 0 0 0 0 0 0 0 0 0 0 0 0 0 0 0 0 0 0 0 0 0 0 0 0
1 3 4 4 4 3 1 0 0 0 0 0 0 0 0 0 0 0 0 0 0 0 0 0 0 0 0 0 0 0 0 0 0 0 0 0 0 0 0 0 0 0 0
2 3 3 3 3 3 2 1 0 0 0 0 0 0 0 0 0 0 0 0 0 0 0 0 0 0 0 0 0 0 0 0 0 0 0 0 0 0 0 0 0 0 0
3 3 3 3 3 3 3 1 0 0 0 0 0 0 0 0 0 0 0 0 0 0 0 0 0 0 0 0 0 0 0 0 0 0 0 0 0 0 0 0 0 0 0
3 3 3 3 3 3 3 2 1 0 0 0 0 0 0 0 0 0 0 0 0 0 0 0 0 0 0 0 0 0 0 0 0 0 0 0 0 0 0 0 0 0 0
3 3 3 3 3 3 3 2 1 0 0 0 0 0 0 0 0 0 0 0 0 0 0 0 0 0 0 0 0 0 0 0 0 0 0 0 0 0 0 0 0 0 0
3 3 3 3 3 3 3 2 1 0 0 0 0 0 0 0 0 0 0 0 0 0 0 0 0 0 0 0 0 0 0 0 0 0 0 0 0 0 0 0 0 0 0
2 2 2 2 2 2 2 1 0 0 0 0 0 0 0 0 0 0 0 0 0 0 0 0 0 0 0 0 0 0 0 0 0 0 0 0 0 0 0 0 0 0 0
1 1 1 1 1 1 1 0 0 0 0 0 0 0 0 0 0 0 0 0 0 0 0 0 0 0 0 0 0 0 0 0 0 0 0 0 0 0 0 0 0 0 0
0 0 0 0 0 0 0 0 0 0 0 0 0 0 0 0 0 0 0 0 0 0 0 0 0 0 0 0 0 0 0 0 0 0 0 0 0 0 0 0 0 0 0
0 0 0 0 0 0 0 0 0 0 0 0 0 0 0 0 0 0 0 0 0 0 0 0 0 0 0 0 0 0 0 0 0 0 0 0 0 0 0 0 0 0 0
0 0 0 0 0 0 0 0 0 0 0 0 0 0 0 0 0 0 0 0 0 0 0 0 0 0 0 0 0 0 0 0 0 0 0 0 0 0 0 0 0 0 0
0 0 0 0 0 0 0 0 0 0 0 0 0 0 0 0 0 0 0 0 0 0 0 0 0 0 0 0 0 0 0 0 0 0 0 0 0 0 0 0 0 0 0
0 0 0 0 0 0 0 0 0 0 0 0 0 0 0 0 0 0 0 0 0 0 0 0 0 0 0 0 0 0 0 0 0 0 0 0 0 0 0 0 0 0 0
0 0 0 0 0 0 0 0 0 0 0 0 0 0 0 0 0 0 0 0 0 0 0 0 0 0 0 0 0 0 0 0 0 0 0 0 0 0 0 0 0 0 0
0 0 0 0 0 0 0 0 0 0 0 0 0 0 0 0 0 0 0 0 0 0 0 0 0 0 0 0 0 0 0 0 0 0 0 0 0 0 0 0 0 0 0
0 0 0 0 0 0 0 0 0 0 0 0 0 0 0 0 0 0 0 0 0 0 0 0 0 0 0 0 0 0 0 0 0 0 0 0 0 0 0 0 0 0 0
0 0 0 0 0 0 0 0 0 0 0 0 0 0 0 0 0 0 0 0 0 0 0 0 0 0 0 0 0 0 0 0 0 0 0 0 0 0 0 0 0 0 0
0 0 0 0 0 0 0 0 0 0 0 0 0 0 0 0 0 0 0 0 0 0 0 0 0 0 0 0 0 0 0 0 0 0 0 0 0 0 0 0 0 0 0
0 0 0 0 0 0 0 0 0 0 0 0 0 0 0 0 0 0 0 0 0 0 0 0 0 0 0 0 0 0 0 0 0 0 0 0 0 0 0 0 0 0 0
0 0 0 0 0 0 0 0 0 0 0 0 0 0 0 0 0 0 0 0 0 0 0 0 0 0 0 0 0 0 0 0 0 0 0 0 0 0 0 0 0 0 0
0 0 0 0 0 0 0 0 0 0 0 0 0 0 0 0 0 0 0 0 0 0 0 0 0 0 0 0 0 0 0 0 0 0 0 0 0 0 0 0 0 0 0
0 0 0 0 0 0 0 0 0 0 0 0 0 0 0 0 0 0 0 0 0 0 0 0 0 0 0 0 0 0 0 0 0 0 0 0 0 0 0 0 0 0 0
0 0 0 0 0 0 0 0 0 0 0 0 0 0 0 0 0 0 0 0 0 0 0 0 0 0 0 0 0 0 0 0 0 0 0 0 0 0 0 0 0 0 0
0 0 0 0 0 0 0 0 0 0 0 0 0 0 0 0 0 0 0 0 0 0 0 0 0 0 0 0 0 0 0 0 0 0 0 0 0 0 0 0 0 0 0
Wind_Speed
4 4 4 4 4 4 4 4 4 3 3 4 4 4 4 3 4 4 3 3 4 3 2 3 2 3 3 2 2 3 2 3 4 1 1 1 2 2 2 2 3 3 3
4 4 5 4 4 4 4 3 4 4 3 4 4 4 4 4 4 4 4 4 4 4 3 3 3 3 3 2 3 3 3 3 4 4 1 1 2 2 2 2 2 3 2
3 3 4 4 5 4 4 3 4 4 3 3 4 4 4 4 4 4 4 4 4 4 4 4 4 4 3 2 3 3 3 3 3 4 2 1 1 2 2 2 2 2 2
4 4 3 4 5 5 4 4 4 4 4 4 4 4 4 4 3 4 4 4 4 3 3 4 4 5 4 4 3 4 4 4 4 4 3 2 1 1 2 2 1 1 2
4 4 4 3 4 4 4 4 4 4 4 4 4 3 3 3 3 4 5 4 4 3 3 3 3 5 6 5 4 4 5 4 4 3 3 2 1 2 2 2 2 1 1
5 4 3 3 4 4 4 4 4 4 4 4 4 4 4 3 5 7 6 4 4 4 3 2 2 3 4 5 6 7 8 6 6 4 3 3 3 3 2 3 2 1 0
4 4 4 4 4 5 5 5 5 4 4 4 4 4 4 3 6 8 8 5 4 4 4 3 2 3 3 3 4 5 5 6 8 6 5 5 5 5 5 3 3 2 2
4 4 4 4 4 4 5 5 4 4 4 4 4 4 4 4 6 8 8 5 4 3 3 3 3 3 3 4 4 3 2 2 3 4 5 5 4 5 5 4 4 3 1
4 4 4 4 4 5 6 5 4 4 4 4 4 4 4 4 6 8 8 4 3 3 3 3 4 3 6 7 5 4 2 0 1 3 3 3 4 7 7 5 4 3 1
5 5 4 5 5 5 6 5 4 4 4 4 4 4 5 4 6 8 9 4 4 2 2 2 5 5 7 8 5 5 4 2 1 2 2 3 2 4 6 4 5 3 2
4 4 4 5 5 4 4 4 4 4 4 4 4 3 4 4 6 8 9 5 4 4 2 2 2 6 7 7 6 4 5 4 3 3 2 2 2 2 1 1 2 3 3
4 4 4 4 4 3 4 4 4 5 5 4 3 3 2 3 4 6 8 7 6 4 4 3 3 7 7 7 5 5 6 5 3 3 2 1 1 1 0 1 1 1 1
4 4 4 4 3 4 5 5 4 4 4 4 4 3 3 2 3 6 7 8 7 4 3 5 6 7 6 5 5 7 6 4 3 3 2 1 1 1 1 1 2 2 2
5 5 4 4 4 4 4 4 5 5 4 4 4 4 3 3 3 3 3 4 5 4 3 4 6 6 4 4 4 4 3 3 3 3 2 1 1 1 1 1 1 1 1
5 4 4 4 4 4 3 4 5 5 6 7 6 5 5 5 6 7 6 4 4 4 5 3 2 3 2 2 2 2 2 2 2 2 2 2 2 1 1 1 1 1 1
5 4 4 4 4 4 3 2 2 3 5 6 6 6 5 5 7 9 9 8 9 10 6 4 3 3 4 4 3 3 2 2 2 2 2 2 2 2 1 1 1 1 1
6 5 4 4 4 4 4 4 3 2 2 3 5 6 6 7 8 9 9 9 9 11 4 4 4 5 4 4 4 4 3 3 3 3 3 3 3 2 2 2 2 1 1
5 6 5 5 5 5 5 5 4 5 4 2 3 5 6 7 8 9 9 8 5 5 3 4 5 4 4 4 4 3 3 3 3 3 3 3 3 3 2 2 3 3 2
4 4 4 4 4 4 4 4 4 5 4 3 2 2 5 6 7 8 10 5 6 6 5 4 4 4 4 4 4 4 4 4 4 3 3 3 3 3 3 3 3 4 3
4 6 5 4 4 4 4 4 4 5 5 4 4 4 4 4 3 5 5 4 5 5 5 5 4 5 4 4 4 4 4 4 4 4 4 4 4 4 4 4 4 3 3
3 4 5 4 4 4 4 5 5 5 5 5 4 5 7 6 6 6 6 5 5 5 5 5 5 5 5 4 4 5 5 4 4 4 4 4 4 4 3 3 4 3 3
3 3 4 4 4 4 4 4 4 4 5 5 3 4 8 5 4 5 5 5 5 4 5 5 5 4 5 5 5 5 5 5 4 4 4 4 4 4 4 3 3 3 3
2 3 3 3 3 4 3 3 4 4 5 5 5 4 5 5 5 5 5 5 4 4 4 5 5 4 4 4 5 5 6 6 5 6 5 5 4 4 4 4 5 4 4
3 3 3 3 3 3 4 4 4 4 5 5 5 5 5 5 5 5 5 4 4 4 4 4 5 6 6 5 4 4 4 4 4 5 6 6 5 4 4 4 4 5 5
2 3 3 3 4 4 4 4 4 4 4 5 5 5 5 5 5 5 4 4 5 5 5 5 4 5 7 7 6 5 6 7 7 5 5 5 5 5 5 5 4 4 4
3 4 3 3 4 4 4 4 4 4 4 4 5 5 5 5 5 5 5 5 5 5 5 5 5 6 6 6 7 7 8 8 8 8 5 5 5 5 5 4 5 4 4
Wind_Direction
190 187 179 180 180 172 178 188 184 181 173 172 173 166 166 169 166 161 166 158 151 148 144 145 150 140 133 132 127 126 124 125 134 139 80 71 77 85 63 59 64 54 56
185 181 183 177 171 174 183 184 172 174 173 172 169 165 172 171 170 169 171 164 162 163 161 150 155 141 131 132 131 136 137 134 137 142 116 83 82 105 93 82 73 74 64
163 167 175 170 170 181 186 173 166 167 163 160 161 170 174 172 169 173 168 165 168 171 167 166 166 150 147 144 138 139 139 132 126 139 135 105 91 105 90 76 69 44 66
163 164 175 186 182 183 178 169 168 166 163 164 166 173 171 167 164 165 160 160 162 163 165 165 167 167 169 162 152 151 139 128 123 127 126 113 107 101 108 110 70 37 39
167 170 187 191 181 173 168 168 166 165 168 166 157 160 159 160 164 163 162 160 159 155 151 156 169 172 175 174 163 159 148 138 135 133 138 130 145 152 170 169 144 85 27
174 182 174 169 170 173 170 164 159 156 154 156 162 164 166 173 165 162 157 153 154 152 149 146 152 157 159 165 166 163 159 156 161 156 162 173 193 187 164 160 153 137 245
182 180 168 168 173 175 169 158 160 161 156 159 167 166 171 176 167 164 162 150 151 154 153 153 154 143 140 135 137 142 160 168 168 166 172 190 188 189 168 169 179 177 198
181 177 172 171 175 170 164 168 172 163 164 168 170 170 168 175 168 163 157 146 142 147 154 161 161 156 154 145 132 123 131 167 186 181 188 196 191 179 173 172 164 141 98
187 191 183 173 172 171 175 179 175 166 168 170 168 166 169 177 165 159 149 142 141 151 156 159 161 167 166 150 139 139 138 189 160 165 171 166 160 160 152 130 133 134 171
199 196 183 175 176 182 186 179 170 168 170 163 160 170 174 178 171 161 151 146 149 154 149 166 173 170 166 158 153 153 164 201 135 109 97 93 113 141 151 158 162 158 165
195 180 177 178 179 177 173 170 161 160 155 159 165 174 179 182 178 169 161 157 166 166 169 180 188 176 172 170 165 170 180 162 135 122 102 82 77 85 106 137 164 169 175
178 172 177 178 176 160 158 165 161 158 158 165 167 174 185 184 178 180 174 173 166 166 182 187 183 175 174 169 166 163 155 138 127 123 117 117 117 119 101 110 124 139 175
172 175 175 171 166 158 160 165 162 163 164 170 172 183 187 182 185 185 180 178 174 168 180 177 169 164 161 161 164 155 144 135 138 142 160 183 182 166 130 97 77 83 58
175 180 176 169 169 164 161 162 166 173 173 174 179 187 185 180 183 179 175 173 169 165 155 152 147 142 136 139 143 146 142 156 159 168 168 162 133 125 130 123 118 96 65
175 177 178 175 175 172 169 173 177 187 185 180 188 183 180 195 200 179 166 169 167 163 139 119 119 129 138 141 141 143 148 151 160 157 156 158 160 155 166 140 133 111 128
175 178 183 178 177 174 169 168 187 184 190 194 188 181 194 196 177 176 177 172 162 153 140 151 164 170 177 179 176 176 178 183 183 174 171 175 178 181 182 154 129 148 174
186 188 185 181 179 178 180 178 181 189 183 192 193 192 191 181 177 179 176 168 163 156 154 173 182 188 190 186 185 185 190 192 180 180 186 185 182 182 177 171 161 161 191
190 192 188 186 182 183 187 187 183 178 178 202 208 197 188 182 180 176 161 143 158 174 183 185 192 192 189 188 190 190 185 175 175 183 185 184 182 184 187 186 185 188 195
190 191 190 185 183 184 184 185 185 183 182 182 172 183 182 170 163 164 156 166 181 191 195 194 191 189 189 188 189 187 183 182 183 184 188 186 185 183 192 195 194 195 191
196 192 185 181 179 179 181 185 186 186 187 187 191 186 163 150 159 172 183 190 192 195 194 194 192 191 190 189 185 182 182 185 186 189 192 191 189 189 194 192 190 190 196
189 183 183 181 185 186 186 191 190 188 190 195 200 187 171 176 184 187 192 198 200 200 197 194 192 190 189 184 182 185 189 193 193 191 189 189 187 190 194 191 191 189 183
178 177 178 186 189 188 190 192 188 190 194 197 193 179 178 179 185 189 196 202 202 198 193 189 190 191 191 189 187 188 193 197 197 194 193 191 190 188 186 186 186 186 184
173 177 181 186 184 182 186 193 193 193 197 197 188 180 183 193 194 196 200 200 194 191 188 185 184 187 187 188 188 189 193 197 197 192 188 188 188 188 186 188 186 185 191
186 182 184 182 180 183 189 197 202 200 196 192 189 190 193 195 197 198 197 192 189 189 186 185 186 189 188 188 192 195 197 193 184 184 182 182 185 187 185 186 190 195 195
196 187 186 191 191 193 198 201 205 204 200 195 193 193 195 196 198 198 192 186 184 185 186 186 189 189 191 192 193 195 191 183 180 179 178 178 181 183 183 186 190 190 193
198 193 189 194 199 198 199 202 207 205 204 204 200 196 196 198 198 195 189 185 187 187 187 189 192 192 193 196 196 193 185 180 177 176 175 176 179 183 181 184 187 188 189